Regional Weather Roundup
Issued by NWS

Current Version | Previous Version | Text Only | Print | Product List | Glossary On
Versions: 1 2 3 4 5 6 7 8 9 10 11 12 13 14 15 16 17 18 19 20 21 22 23 24 25 26 27 28 29 30 31 32 33 34 35 36 37 38 39 40 41 42 43 44 45 46 47 48 49 50
000
ASUS43 KFSD 291610
RWRSD

WEATHER ROUNDUP FOR SOUTH DAKOTA
NATIONAL WEATHER SERVICE SIOUX FALLS SD
1100 AM CDT FRI JUL 29 2016

NOTE: "FAIR" INDICATES FEW OR NO CLOUDS BELOW 12,000 FEET WITH NO
SIGNIFICANT WEATHER AND/OR OBSTRUCTIONS TO VISIBILITY.


SDZ001>005-009-010-012>017-291700-
NORTHWEST AND NORTH CENTRAL SOUTH DAKOTA

CITY           SKY/WX    TMP DP  RH WIND       PRES   REMARKS
BUFFALO          N/A     68  60  75 SE7       30.05F
FAITH            N/A     72  57  59 VRB5      30.11S
MOBRIDGE       MOSUNNY   74  61  63 SE3       30.06F
$$

SDZ012>016-024>037-041>051-057-063-072>074-291700-
SOUTHWEST AND SOUTH CENTRAL SOUTH DAKOTA

CITY           SKY/WX    TMP DP  RH WIND       PRES   REMARKS
RAPID CTY ARPT MOSUNNY   72  58  61 SE7       30.11F
PIERRE         PTSUNNY   73  60  63 CALM      30.08S
CUSTER         SUNNY     68  52  56 W6        30.21F
ELLSWORTH AFB  MOSUNNY   73  59  61 VRB6      30.11F
PHILIP         MOSUNNY   68  63  84 VRB3      30.10F
PINE RIDGE     SUNNY     73  57  57 E5        30.12F
WINNER         CLOUDY    69  63  81 SE9       30.12S
$$

SDZ004>011-016>023-039-040-291700-
NORTHEAST SOUTH DAKOTA

CITY           SKY/WX    TMP DP  RH WIND       PRES   REMARKS
ABERDEEN       SUNNY     76  58  53 S5        30.10S
WATERTOWN      CLOUDY    74  55  51 SE5       30.11S
BROOKINGS      SUNNY     72  55  55 E9        30.12R
SISSETON         N/A     73  61  65 SE6       30.09S
$$

SDZ017-020-022-023-036>040-048>070-291700-
SOUTHEAST SOUTH DAKOTA

CITY           SKY/WX    TMP DP  RH WIND       PRES   REMARKS
SIOUX FALLS    MOSUNNY   73  58  59 NE5       30.11R
HURON          SUNNY     74  55  51 SE8       30.10S
CHAMBERLAIN    MOSUNNY   75  61  62 CALM      30.11S
MITCHELL       SUNNY     74  57  55 E5        30.11S
YANKTON        MOSUNNY   72  55  56 NE6       30.09F
$$

ABBREVIATIONS USED IN REMARKS
   TC - TEMPERATURE IN CELSIUS
  WCI - WIND CHILL INDEX
   HX - HEAT INDEX
  VSB - VISIBILITY





USA.gov is the U.S. government's official web portal to all federal, state and local government web resources and services.